Weather History for Savannah, GA

Change the Weather History Date:

Saturday, May 18, 2013

  Actual Average Record
Temperature  
Mean Temperature 75 °F 74 °F  
Max Temperature 85 °F 85 °F 97 °F (1899)
Min Temperature 64 °F 63 °F 49 °F (1984)
Degree Days  
Heating Degree Days 0 0  
Month to date heating degree days 4 6  
Since 1 July heating degree days 1626 1809  
Cooling Degree Days 10 9  
Month to date cooling degree days 90 127  
Year to date cooling degree days 228 263  
Growing Degree Days 24 (Base 50)    
Moisture  
Dew Point 67 °F    
Average Humidity 74    
Maximum Humidity 93    
Minimum Humidity 55    
Precipitation  
Precipitation 0.69 in 0.08 in 2.98 in (2003)
Month to date precipitation 3.06 1.51  
Year to date precipitation 19.44 14.79  
Sea Level Pressure  
Sea Level Pressure 30.10 in    
Wind  
Wind Speed 6 mph (SE)    
Max Wind Speed 18 mph    
Max Gust Speed 24 mph    
Visibility 8 miles    
Events Rain , Thunderstorm    
T = Trace of Precipitation, MM = Missing Value Source: NWS Daily Summary

Daily Weather History Graph

Daily Weather History Graph

Search for Another Location

Airport:

Trip Planner

Search our weather history database for the weather conditions in past years. The results will help you decide how hot, cold, wet, or windy it might be!

Date:

Astronomy

May. 18, 2013 Rise Set
Actual Time 6:25 AM EDT 8:17 PM EDT
Civil Twilight 5:58 AM EDT 8:44 PM EDT
Nautical Twilight 5:25 AM EDT 9:17 PM EDT
Astronomical Twilight 4:50 AM EDT 9:52 PM EDT
Moon 1:43 PM EDT (5/18) 1:52 AM EDT (5/18)
Length of Visible Light 14h 46m
Length of Day
13h 52m
First Quarter, 55% of the Moon is Illuminated
May 18
First Quarter
May 25
Full
May 31
Last Quarter
Jun 8
New
Jun 16
First Quarter

Hourly Weather History & Observations

Time (EDT) Temp. Heat Index Dew Point Humidity Pressure Visibility Wind Dir Wind Speed Gust Speed Precip Events Conditions
12:53 AM 69.1 °F - 64.0 °F 84% 30.12 in 10.0 mi Calm Calm - N/A   Clear
1:53 AM 68.0 °F - 64.9 °F 90% 30.11 in 10.0 mi Calm Calm - N/A   Clear
2:53 AM 66.0 °F - 63.0 °F 90% 30.10 in 10.0 mi Calm Calm - N/A   Clear
3:53 AM 64.9 °F - 62.1 °F 90% 30.10 in 9.0 mi Calm Calm - N/A   Clear
4:53 AM 64.9 °F - 63.0 °F 93% 30.10 in 10.0 mi Calm Calm - N/A   Clear
5:53 AM 66.0 °F - 63.0 °F 90% 30.10 in 10.0 mi Calm Calm - N/A   Mostly Cloudy
6:53 AM 66.9 °F - 64.9 °F 93% 30.13 in 9.0 mi Calm Calm - N/A   Mostly Cloudy
7:53 AM 69.1 °F - 66.9 °F 93% 30.14 in 8.0 mi South 3.5 mph - N/A   Mostly Cloudy
8:53 AM 73.9 °F - 66.9 °F 79% 30.15 in 10.0 mi SSW 9.2 mph - N/A   Mostly Cloudy
9:53 AM 78.1 °F - 66.9 °F 68% 30.14 in 10.0 mi SSW 12.7 mph - N/A   Scattered Clouds
10:53 AM 80.1 °F 82.3 °F 66.9 °F 64% 30.13 in 10.0 mi South 6.9 mph - N/A   Scattered Clouds
11:53 AM 84.0 °F 87.0 °F 68.0 °F 58% 30.13 in 10.0 mi Variable 4.6 mph - N/A   Mostly Cloudy
12:53 PM 84.9 °F 87.6 °F 66.9 °F 55% 30.12 in 10.0 mi Variable 4.6 mph - N/A   Mostly Cloudy
1:53 PM 84.0 °F 87.0 °F 68.0 °F 58% 30.10 in 10.0 mi SSE 10.4 mph - N/A   Mostly Cloudy
2:53 PM 82.9 °F 86.5 °F 69.1 °F 63% 30.08 in 10.0 mi South 17.3 mph - N/A   Mostly Cloudy
3:53 PM 81.0 °F 83.3 °F 66.9 °F 62% 30.07 in 10.0 mi SE 13.8 mph - N/A   Mostly Cloudy
4:48 PM 77.0 °F - 66.2 °F 69% 30.05 in 5.0 mi SSE 15.0 mph - 0.00 in Rain , Thunderstorm Thunderstorms and Rain
4:53 PM 75.9 °F - 66.9 °F 74% 30.05 in 4.0 mi SSE 15.0 mph - 0.01 in Rain , Thunderstorm Thunderstorms and Rain
5:14 PM 73.4 °F - 68.0 °F 83% 30.07 in 2.5 mi NNE 4.6 mph - 0.10 in Rain , Thunderstorm Light Thunderstorms and Rain
5:21 PM 73.4 °F - 68.0 °F 83% 30.08 in 10.0 mi North 5.8 mph - 0.10 in Thunderstorm Thunderstorm
5:40 PM 71.6 °F - 66.2 °F 83% 30.09 in 1.8 mi NE 10.4 mph - 0.17 in Rain , Thunderstorm Heavy Thunderstorms and Rain
5:47 PM 71.6 °F - 66.2 °F 83% 30.09 in 3.0 mi NNE 10.4 mph - 0.22 in Rain , Thunderstorm Thunderstorms and Rain
5:53 PM 70.0 °F - 66.9 °F 90% 30.09 in 3.0 mi NNE 10.4 mph - 0.23 in Rain , Thunderstorm Thunderstorms and Rain
6:31 PM 69.8 °F - 66.2 °F 88% 30.11 in 1.8 mi SW 9.2 mph - 0.13 in Rain , Thunderstorm Heavy Thunderstorms and Rain
6:38 PM 69.8 °F - 66.2 °F 88% 30.10 in 0.8 mi SSE 10.4 mph - 0.30 in Rain , Thunderstorm Heavy Thunderstorms and Rain
6:46 PM 69.8 °F - 66.2 °F 88% 30.09 in 1.5 mi ESE 9.2 mph - 0.42 in Rain , Thunderstorm Thunderstorms and Rain
6:50 PM 69.8 °F - 66.2 °F 88% 30.09 in 3.0 mi ESE 9.2 mph - 0.42 in Rain , Thunderstorm Thunderstorms and Rain
6:53 PM 70.0 °F - 66.9 °F 90% 30.09 in 5.0 mi ESE 9.2 mph - 0.42 in Rain , Thunderstorm Light Thunderstorms and Rain
7:06 PM 69.8 °F - 66.2 °F 88% 30.08 in 6.0 mi East 9.2 mph - 0.02 in Rain Light Rain
7:53 PM 71.1 °F - 68.0 °F 90% 30.09 in 9.0 mi East 4.6 mph - 0.03 in Rain Light Rain
8:53 PM 72.0 °F - 70.0 °F 93% 30.10 in 8.0 mi South 3.5 mph - 0.00 in   Mostly Cloudy
9:53 PM 72.0 °F - 70.0 °F 93% 30.11 in 8.0 mi SSE 3.5 mph - N/A   Mostly Cloudy
10:53 PM 72.0 °F - 70.0 °F 93% 30.11 in 10.0 mi ESE 5.8 mph - N/A   Overcast
11:53 PM 72.0 °F - 70.0 °F 93% 30.10 in 10.0 mi SE 4.6 mph - N/A   Overcast